Location: ?ern� Novina
(50.6762°N, 14.8696°E)
Time: 18:05:36
(UTC+00:00)

Cosmos 2322 - Pass Details

Date: 03 March 2021
Orbit: 841 x 853 km, 71.0° (Epoch: 13 April)

Event Time Altitude Azimuth Distance (km) Brightness Sun altitude
Rises 19:45:17 0° 222° (SW) 3,413 7.0 -28.5°
Reaches altitude 10° 19:47:47 10° 226° (SW) 2,481 6.3 -28.9°
Maximum altitude 19:53:24 57° 305° (NW) 998 4.2 -29.6°
Drops below altitude 10° 19:59:03 10° 24° (NNE) 2,492 6.2 -30.4°
Sets 20:01:34 0° 29° (NNE) 3,430 6.9 -30.8°
